CST,Max TemperatureF,Mean TemperatureF,Min TemperatureF,Max Dew PointF,MeanDew PointF,Min DewpointF,Max Humidity, Mean Humidity, Min Humidity, Max Sea Level PressureIn, Mean Sea Level PressureIn, Min Sea Level PressureIn, Max VisibilityMiles, Mean VisibilityMiles, Min VisibilityMiles, Max Wind SpeedMPH, Mean Wind SpeedMPH, Max Gust SpeedMPH,PrecipitationIn, CloudCover, Events, WindDirDegrees
2013-1-1,12,-4,-20,10,-6,-26,92,83,73,30.18,30.04,29.90,10,8,2,10,1,,0.00,4,Snow,194
2013-1-2,21,16,12,19,16,10,100,93,86,30.03,29.91,29.86,10,6,2,9,2,,0.00,8,Snow,167
2013-1-3,19,12,5,16,9,1,100,85,63,30.13,29.99,29.79,10,8,1,14,6,23,0.00,3,Snow,242
2013-1-4,26,12,-4,25,8,-8,93,89,85,30.09,29.95,29.81,10,10,10,12,1,16,0.00,2,,281
2013-1-5,17,4,-9,18,5,-13,100,91,84,30.08,29.99,29.91,10,10,7,5,0,,0.00,5,,328
2013-1-6,21,14,6,16,10,1,100,85,63,30.16,30.06,29.84,10,9,2,8,2,,0.00,4,Snow,287
2013-1-7,32,24,15,28,21,10,93,87,74,29.84,29.71,29.61,10,10,10,13,7,24,0.00,5,,214
2013-1-8,32,22,12,27,22,9,100,85,69,29.92,29.79,29.60,10,9,0,10,2,18,0.03,5,Snow,173
2013-1-9,30,24,17,27,22,12,100,88,79,30.25,29.97,29.60,10,8,0,16,6,30,0.00,8,Snow,254
2013-1-10,48,32,17,30,20,9,93,61,28,30.21,29.98,29.70,10,9,2,17,6,25,0.17,1,Rain,166
2013-1-11,33,32,30,34,32,30,100,98,93,29.69,29.51,29.32,10,4,0,6,1,,0.42,8,Fog-Rain,150
2013-1-12,32,15,-2,32,11,-4,100,94,85,30.04,29.66,29.29,10,4,0,10,5,18,0.08,7,Rain-Snow,318
2013-1-13,3,-3,-9,1,-5,-13,92,90,84,30.12,30.05,30.00,10,10,10,10,3,17,0.00,3,,319
2013-1-14,6,0,-5,3,-3,-9,92,89,84,30.29,30.21,30.12,10,9,5,9,2,,0.00,6,Snow,232
2013-1-15,21,8,-5,10,5,-8,92,79,58,30.18,29.93,29.53,10,9,3,14,4,22,0.00,4,Snow,181
2013-1-16,21,4,-16,21,6,-20,100,85,67,30.22,29.79,29.44,10,8,0,14,8,22,0.03,5,Snow,307
2013-1-17,6,-8,-22,0,-16,-27,84,76,70,30.33,30.28,30.22,10,10,10,7,1,,0.00,4,,286
2013-1-18,12,-4,-20,10,1,-26,100,88,76,30.23,29.91,29.74,10,6,0,0,0,,0.08,7,Snow,-1
2013-1-19,21,7,-7,19,6,-11,100,89,78,30.15,29.77,29.56,10,4,0,17,4,26,0.15,6,Snow,318
2013-1-20,1,-10,-20,-4,-16,-26,92,81,72,30.26,30.20,30.14,10,9,2,9,2,,0.00,2,Snow,276
2013-1-21,-11,-18,-25,-17,-25,-33,84,77,69,30.20,30.16,30.13,10,8,2,8,3,16,0.00,3,Snow,287
2013-1-22,0,-17,-34,-6,-25,-42,84,74,68,30.26,30.20,30.12,10,10,10,6,0,,0.00,0,,272
2013-1-23,-5,-17,-31,-9,-20,-38,84,76,63,30.61,30.25,30.03,10,7,2,16,3,24,0.00,5,Snow,331
2013-1-24,1,-18,-36,0,-24,-44,92,70,55,30.64,30.46,30.09,10,8,0,6,1,,0.03,3,Snow,153
2013-1-25,15,-2,-18,10,-3,-26,92,83,70,30.27,30.04,29.88,10,7,0,9,3,,0.09,6,Snow,313
2013-1-26,15,-4,-23,10,-7,-29,92,80,72,30.31,30.22,30.10,10,10,3,8,1,,0.00,5,Snow,158
2013-1-27,33,14,-4,21,10,-8,93,79,55,30.11,29.98,29.86,10,10,10,6,1,,0.01,2,,157
2013-1-28,35,29,23,30,26,19,100,89,75,29.85,29.81,29.72,10,8,0,9,1,,0.21,8,Snow,169
2013-1-29,30,24,17,28,25,16,100,95,93,29.78,29.65,29.54,10,6,0,10,2,20,0.51,8,Snow,322
2013-1-30,15,8,1,16,5,0,100,88,79,29.78,29.71,29.68,10,6,1,12,6,21,0.00,8,Snow,335
2013-1-31,3,-6,-16,0,-8,-20,92,80,71,30.13,29.92,29.69,10,8,2,12,6,22,0.00,5,Snow,321